Location: Carnetin
(48.9010°N, 2.7059°E)
Time: 03:35:03
(UTC+00:00)

USA 229 - Pass Details

Date: 03 June 2022
Orbit: 938 x 1274 km, 63.4° (Epoch: 24 May)

Event Time Altitude Azimuth Distance (km) Brightness Sun altitude
Rises 23:50:04 0° 312° (NW) 4,013 7.3 -18.7°
Reaches altitude 10° 23:53:15 10° 300° (WNW) 3,101 6.5 -18.7°
Maximum altitude 23:59:00 25° 249° (WSW) 2,258 5.2 -18.6°
Enters shadow 00:01:52 20° 219° (SW) 2,531 5.2 -18.6°
